Flag for El Salvador Weather past 2 weeks in San Salvador, El Salvador

Now
73 °F

Passing clouds.


Feels Like: 70 °F
Forecast: 68 / 86 °F
Wind: 3 mph from Northeast

Location: El Salvador Intl. Airport / Comalapa

Current Time: Mar 27, 2015 at 5:56:12 AM

Latest Report: Mar 27, 2015 at 4:50 AM


Visibility: 5 mi

Pressure: 29.86 "Hg

Humidity: 94%

Dew point: 72 °F

Location of San SalvadorLocation

Historic Weather in San Salvador — Graph

°F

San Salvador temperature yesterday

Maximum temperature yesterday: 91 °F (at 10:50 AM)
Minimum temperature yesterday: 75 °F (at 3:50 AM)
Average temperature yesterday: 82 °F

Past Weeks' High & Low Weather Summary

 TemperatureHumidityPressure
High95 °F (Mar 12, 10:50 AM)94% (Mar 12, 8:50 PM)30.54 "Hg (Mar 12, 8:50 PM)
Low72 °F (Mar 13, 3:50 AM)28% (Mar 18, 10:50 AM)29.71 "Hg (Mar 13, 1:50 PM)
Average83 °F67%29.88 "Hg
* Reported Mar 12 4:50 AM — Mar 27 4:50 AM, San Salvador, Weather by CustomWeather, © 2015

Note: Actual official high and low records may vary slightly from our data, if they occured in-between our weather recording intervals... More about our weather records

Advertising

San Salvador weather history for previous 24 hours

 ConditionsComfort  
Time TempWeatherWind HumidityBarometerVisibility
4:50 AM
Fri, Mar 27
73 °FPassing clouds.3 mph94%29.86 "Hg5 mi
3:50 AM75 °FPassing clouds.3 mph89%29.86 "HgN/A
2:50 AM75 °FPassing clouds.2 mph89%29.83 "HgN/A
1:50 AM77 °FPassing clouds.2 mph89%29.86 "HgN/A
12:50 AM77 °FPassing clouds.2 mph89%29.89 "HgN/A
11:50 PM
Thu, Mar 26
77 °FPartly cloudy.2 mph89%29.89 "HgN/A
10:50 PM77 °FPartly cloudy.1 mph89%29.89 "HgN/A
9:50 PM81 °FPassing clouds.2 mph79%29.89 "HgN/A
8:50 PM81 °FPassing clouds.5 mph84%29.89 "HgN/A
7:50 PM81 °FPartly cloudy.3 mph84%29.86 "HgN/A
6:50 PM82 °FPassing clouds.5 mph74%29.83 "HgN/A
5:50 PM82 °FPassing clouds.8 mph74%29.83 "HgN/A
4:50 PM86 °FScattered clouds.10 mph70%29.83 "HgN/A
3:50 PM86 °FBroken clouds.12 mph66%29.83 "HgN/A
2:50 PM86 °FPassing clouds.12 mph66%29.83 "HgN/A
1:50 PM88 °FPassing clouds.9 mph62%29.86 "HgN/A
12:50 PM88 °FScattered clouds.10 mph66%29.86 "HgN/A
11:50 AM90 °FScattered clouds.10 mph55%29.89 "HgN/A
10:50 AM91 °FScattered clouds.8 mph49%29.92 "HgN/A
9:50 AM88 °FScattered clouds.8 mph55%29.95 "HgN/A
8:50 AM86 °FPassing clouds.3 mph66%29.95 "HgN/A
7:50 AM82 °FPassing clouds.5 mph79%29.95 "Hg5 mi
6:50 AM77 °FPassing clouds.3 mph89%29.92 "Hg5 mi
5:50 AM75 °FPassing clouds.2 mph94%29.89 "Hg6 mi
Weather by CustomWeather, © 2015

See weather overviewHow to use our weather pages